Location: Newark
(43.0000°N, 1.6781°W)
Time: 08:41:12
(UTC+00:00)

Courier 1B Rocket - Pass Details

Date: 27 April 2021
Orbit: 920 x 1202 km, 28.2° (Epoch: 09 May)

Event Time Altitude Azimuth Distance (km) Brightness Sun altitude
Rises 21:09:29 0° 251° (WSW) 3,648 8.4 -20.3°
Reaches altitude 10° 21:13:38 10° 226° (SW) 2,754 7.4 -20.8°
Maximum altitude 21:16:40 13° 199° (SSW) 2,550 6.9 -21.2°
Enters shadow 21:17:05 13° 195° (SSW) 2,560 6.9 -21.2°
